Tracking 19636 objects as of 24-May-2019
HD Live streaming from Space Station
objects crossing your sky now

OPS 9332 (IDSCS 17)

Track OPS 9332 (IDSCS 17) now!
OPS 9332 (IDSCS 17) is classified as:


NORAD ID: 2863
Int'l Code: 1967-066B
Perigee: 33,025.8 km
Apogee: 33,562.6 km
Inclination: 3.4 °
Period: 1,310.3 minutes
Semi major axis: 39665 km
RCS: 0.6309 m2 (medium)
Launch date: July 1, 1967
Source: United States (US)
Launch site: AIR FORCE EASTERN TEST RANGE (AFETR)
aabbcc
Your satellite tracking list
Your tracking list is empty




NASA's NSSDC Master Catalog

Two Line Element Set (TLE):
1  2863U 67066B   19143.85777755 -.00000120 +00000-0 +00000-0 0  9997
2  2863 003.4447 280.3753 0067661 008.1034 327.2709 01.09897629096346
Source of the keplerian elements: AFSPC